Simultaneous Nadir Overpasses (SNOs) Predictions

Prediction of SNOs near US between AQUA and NPP Satellite Orbit:

Table of predicted SNOs near US for the next 10.0 days since TLE Epoch: 4/4/2015
Index Date (AQUA) Time (AQUA) AQUA Lat,Lon Date (NPP) Time (NPP) NPP Lat,Lon Distance(km) Time Diff (sec)
1 04/06/2015 18:17:54 49.98, -80.19 04/06/2015 18:15:55 49.70, -81.66 110.37 119
2 04/06/2015 19:56:12 47.90,-104.06 04/06/2015 19:56:47 47.52,-106.11 159.02 35
3 04/06/2015 21:28:58 25.92,-122.11 04/06/2015 21:31:57 25.41,-124.48 244.10 179
4 04/09/2015 07:46:39 20.02, -89.54 04/09/2015 07:40:37 19.98, -89.35 20.93 362
5 04/09/2015 09:20:47 37.16,-109.83 04/09/2015 09:17:12 37.21,-110.03 18.69 215
6 04/12/2015 06:31:21 46.46, -65.03 04/12/2015 06:35:45 46.85, -66.97 154.56 264
7 04/12/2015 08:09:16
